Location: Saint Peter Port
(49.4500°N, 2.5330°W)
Time: 06:12:48
(UTC+00:00)

Cosmos 2242 Rocket - Visible Passes

Search period start: 22 February 2017 00:00
Search period end: 04 March 2017 00:00
Orbit: 619 x 652 km, 82.5° (Epoch: 20 February)

Date Brightness Start Highest point End Pass type
(mag) Time Alt. Az. Time Alt. Az. Time Alt. Az.
22 Feb 6.6 03:01:15 13° ENE 03:01:15 13° ENE 03:02:15 10° NE visible
22 Feb 4.3 04:38:45 43° NNW 04:38:45 43° NNW 04:41:54 10° N visible
23 Feb 6.1 03:23:52 20° NE 03:23:52 20° NE 03:25:43 10° NNE visible
23 Feb 4.7 05:01:23 28° NW 05:01:23 28° NW 05:04:10 10° N visible
24 Feb 5.5 03:46:28 26° NNE 03:46:28 26° NNE 03:48:36 10° NNE visible
24 Feb 5.3 05:23:58 18° NW 05:23:58 18° NW 05:26:05 10° NNW visible
25 Feb 5.2 04:09:00 28° N 04:09:00 28° N 04:11:11 10° N visible
25 Feb 5.7 05:46:30 11° NW 05:46:30 11° NW 05:47:01 10° NW visible
26 Feb 6.5 02:54:00 14° NE 02:54:00 14° NE 02:54:49 10° NE visible
26 Feb 5.2 04:31:30 24° NNW 04:31:30 24° NNW 04:33:31 10° N visible
27 Feb 6.1 03:16:29 18° NNE 03:16:29 18° NNE 03:17:48 10° NNE visible
27 Feb 5.5 04:53:58 17° NNW 04:53:58 17° NNW 04:55:33 10° NNW visible
28 Feb 5.7 03:38:56 21° N 03:38:56 21° N 03:40:27 10° N visible
28 Feb 5.8 05:16:26 11° NW 05:16:26 11° NW 05:16:57 10° NNW visible
01 Mar 5.6 04:01:22 20° N 04:01:22 20° N 04:02:51 10° N visible
02 Mar 6.5 02:46:18 14° NNE 02:46:18 14° NNE 02:46:59 10° NNE visible
02 Mar 5.7 04:23:47 16° NNW 04:23:47 16° NNW 04:24:59 10° N visible
03 Mar 6.2 03:08:42 17° NNE 03:08:42 17° NNE 03:09:42 10° NNE visible
03 Mar 5.9 04:46:11 11° NNW 04:46:11 11° NNW 04:46:39 10° NNW visible
